Date,TemperatureHighF,TemperatureAvgF,TemperatureLowF,DewpointHighF,DewpointAvgF,DewpointLowF,HumidityHigh,HumidityAvg,HumidityLow,PressureMaxIn,PressureMinIn,WindSpeedMaxMPH,WindSpeedAvgMPH,GustSpeedMaxMPH,PrecipitationSumIn
2014-1-1,13.1,3.6,-6.2,-2.3,-7.0,-13.8,70,61,47,30.26,30.17,14,3,14,0.00
2014-1-2,11.1,2.9,-12.9,0.2,-5.7,-19.0,80,68,50,30.28,30.15,18,3,18,0.00
2014-1-3,17.1,4.5,-15.3,11.4,-2.9,-21.4,81,71,60,30.26,29.49,23,7,34,0.00
2014-1-4,32.2,21.9,9.6,27.2,14.4,2.4,83,73,65,30.01,29.42,21,7,21,0.00
2014-1-5,9.6,-0.9,-12.9,2.3,-11.4,-21.4,72,60,45,30.14,29.99,22,8,22,0.00
2014-1-6,-11.4,-16.1,-22.9,-21.5,-26.4,-33.0,66,59,49,30.15,30.08,24,9,24,0.00
2014-1-7,4.3,-7.9,-18.0,-9.1,-16.9,-25.5,75,65,53,30.21,30.06,12,4,14,0.00
2014-1-8,7.5,-5.8,-14.9,-4.2,-12.9,-21.1,78,71,57,30.44,30.18,11,2,11,0.00
2014-1-9,19.4,2.0,-19.2,17.1,-5.3,-26.4,92,72,54,30.44,29.99,14,3,14,0.00
2014-1-10,32.0,27.3,19.1,30.4,25.3,16.9,98,93,84,30.00,29.39,13,3,13,0.00
2014-1-11,31.8,29.4,26.0,29.7,25.7,21.8,92,86,82,29.68,29.37,18,3,18,0.00
2014-1-12,42.5,33.0,21.2,32.3,27.5,18.6,92,81,65,29.68,29.39,22,4,22,0.00
2014-1-13,37.5,31.2,19.9,32.2,26.9,18.0,95,84,67,29.65,29.44,23,4,23,0.00
2014-1-14,30.9,23.8,13.6,29.3,21.8,9.1,97,92,82,29.94,29.39,27,6,27,0.00
2014-1-15,16.4,11.3,7.0,12.7,5.6,2.5,87,77,66,30.03,29.51,25,6,25,0.00
2014-1-16,36.2,21.8,6.9,30.2,15.7,-1.8,89,77,64,29.70,29.32,27,7,27,0.00
2014-1-17,22.6,11.7,-0.4,11.7,5.4,-3.8,88,76,61,29.91,29.68,21,6,21,0.00
2014-1-18,23.7,10.0,-2.9,13.3,4.7,-6.8,89,79,63,29.85,29.66,13,2,13,0.00
2014-1-19,37.9,26.5,13.0,27.8,20.6,10.0,89,79,62,29.73,29.39,22,5,22,0.00
2014-1-20,29.9,19.5,0.8,26.3,13.4,-8.2,90,77,62,30.27,29.60,21,4,21,0.00
2014-1-21,6.6,-2.2,-10.9,-5.5,-11.1,-17.6,76,65,51,30.33,30.02,13,3,13,0.00
2014-1-22,13.5,3.7,-5.6,3.7,-4.6,-14.3,79,68,52,30.23,29.83,27,8,27,0.00
2014-1-23,4.1,-5.2,-11.3,-8.1,-14.0,-18.9,74,65,55,30.55,30.22,28,7,28,0.00
2014-1-24,29.7,14.9,-11.2,28.0,7.6,-17.2,97,73,57,30.32,29.33,26,7,26,0.00
2014-1-25,28.8,9.7,1.4,24.7,-2.6,-10.0,85,57,48,29.76,29.35,37,10,37,0.00
2014-1-26,21.0,9.1,-0.1,12.9,2.8,-6.8,86,76,63,29.84,29.28,35,8,35,0.00
2014-1-27,-0.2,-8.9,-15.5,-6.3,-18.6,-23.1,75,62,49,30.31,29.83,20,9,25,0.00
2014-1-28,3.4,-8.1,-17.5,-10.7,-16.9,-24.2,74,65,49,30.31,30.06,16,5,16,0.00
2014-1-29,24.4,8.8,-8.6,13.4,-1.4,-14.8,78,64,46,30.07,29.65,25,6,25,0.00
2014-1-30,35.7,23.9,7.7,27.4,16.4,0.9,85,73,62,29.91,29.42,27,7,27,0.00
2014-1-31,12.8,1.5,-7.7,0.7,-7.3,-13.3,79,67,47,30.12,29.90,13,2,13,0.00
2014-2-1,27.4,10.5,-7.4,14.9,2.8,-12.7,90,71,57,30.08,29.87,14,1,14,0.00
2014-2-2,15.0,3.7,-9.9,6.4,-3.6,-15.6,91,72,52,30.25,30.07,14,3,14,0.00
2014-2-3,25.7,6.6,-12.2,10.8,-1.7,-18.4,86,69,51,30.29,30.17,15,2,15,0.00
2014-2-4,22.7,13.2,4.2,8.5,5.0,0.7,87,70,53,30.39,30.24,9,1,9,0.00
2014-2-5,6.6,1.4,-3.0,-1.1,-5.7,-9.3,75,72,69,30.39,30.35,14,5,14,0.00
2014-2-6,7.6,-2.1,-9.7,-4.5,-9.6,-14.4,81,70,56,30.37,30.21,18,6,18,0.00
2014-2-7,9.4,2.9,-1.9,-3.1,-5.0,-6.7,81,70,51,30.18,30.12,12,2,12,0.00
2014-2-8,19.7,4.1,-9.7,10.0,-1.9,-14.9,84,76,58,30.18,30.03,9,1,9,0.00
2014-2-9,20.0,5.5,-5.9,7.0,-2.2,-13.0,90,71,51,30.28,30.05,18,5,18,0.00
2014-2-10,10.5,-2.0,-10.7,-3.9,-10.9,-16.5,76,66,50,30.41,30.26,15,4,15,0.00
2014-2-11,17.4,-0.3,-17.5,1.4,-9.7,-23.8,78,65,47,30.42,30.17,15,2,15,0.00
2014-2-12,29.2,13.5,2.5,14.1,4.6,-3.2,88,68,52,30.18,29.86,13,2,13,0.00
2014-2-13,30.7,19.2,6.3,23.8,14.1,3.4,88,80,71,29.90,29.38,24,7,24,0.00
2014-2-14,21.7,11.6,3.6,9.7,4.0,-4.1,85,72,57,29.97,29.59,23,6,23,0.00
2014-2-15,25.7,8.2,-8.4,13.9,1.0,-14.7,87,73,50,29.99,29.84,13,2,13,0.00
2014-2-16,27.2,16.8,9.4,14.2,10.0,1.3,90,75,54,30.19,29.91,19,5,19,0.00
2014-2-17,29.7,21.7,14.8,23.9,17.8,8.0,91,85,74,30.15,29.65,26,6,26,0.00
2014-2-18,50.4,29.6,12.5,41.6,24.1,9.9,95,81,53,29.82,29.50,16,4,16,0.00
2014-2-19,46.9,32.7,20.0,28.5,24.3,16.0,95,73,45,29.84,29.64,14,4,14,0.00
2014-2-20,38.4,33.4,30.1,34.4,30.4,24.3,100,89,76,29.79,28.94,35,6,35,0.00
2014-2-21,32.2,20.0,14.9,32.2,14.9,9.0,100,81,70,29.68,29.01,27,12,32,0.00
2014-2-22,24.9,15.6,7.7,12.1,6.9,2.4,80,68,56,30.03,29.68,19,11,24,0.00
2014-2-23,21.1,11.4,3.7,7.7,2.9,-1.9,79,69,54,30.15,30.02,24,10,24,0.00
2014-2-24,21.7,11.5,4.1,6.2,1.9,-1.8,77,66,50,30.20,30.13,19,8,19,0.00
2014-2-25,12.1,5.2,-2.7,3.8,-3.5,-10.6,82,67,51,30.19,30.11,22,8,22,0.00
2014-2-26,14.9,4.1,-9.3,10.7,-5.9,-17.5,87,64,41,30.19,29.50,38,9,38,0.00
2014-2-27,6.7,-2.2,-12.8,-5.2,-16.2,-20.3,70,51,35,30.11,29.67,27,6,27,0.00
2014-2-28,20.7,6.0,-14.4,13.2,-2.2,-21.5,88,70,49,30.10,29.86,18,3,18,0.00
2014-3-1,15.0,8.1,-1.5,9.6,-0.3,-10.8,85,68,52,30.39,30.00,18,6,18,0.00
2014-3-2,8.1,-2.3,-11.7,-10.9,-16.8,-22.1,64,50,37,30.46,30.35,18,5,18,0.00
2014-3-3,22.2,3.2,-18.4,4.2,-9.5,-25.2,75,57,36,30.46,30.24,12,2,12,0.00
2014-3-4,33.2,18.7,9.9,12.7,8.1,-2.6,83,65,41,30.24,30.12,8,1,8,0.00
2014-3-5,27.3,15.9,-1.5,11.5,5.2,-6.9,83,64,42,30.43,30.23,18,4,18,0.00
2014-3-6,32.5,14.0,-8.0,17.9,5.9,-13.1,82,71,52,30.40,29.90,17,4,18,0.00
2014-3-7,46.8,33.4,18.6,33.1,25.7,13.1,86,74,57,30.03,29.77,16,5,16,0.00
2014-3-8,34.2,25.5,12.8,24.5,15.8,10.7,91,67,49,30.22,30.02,16,4,16,0.00
2014-3-9,46.9,30.6,11.7,32.1,22.2,9.8,94,73,52,30.16,29.63,26,5,26,0.00
2014-3-10,53.8,42.0,31.1,38.4,33.6,27.8,97,74,51,29.64,29.53,13,4,13,0.00
2014-3-11,43.4,38.8,34.7,38.6,32.6,25.0,92,79,64,29.79,29.61,20,3,20,0.00
2014-3-12,34.9,26.6,9.8,25.8,14.1,2.6,91,61,34,30.05,29.78,19,5,22,0.00
2014-3-13,43.7,27.7,7.3,32.4,19.7,4.5,90,73,53,30.03,29.58,20,4,20,0.00
2014-3-14,45.0,38.7,29.8,34.9,31.1,20.8,86,74,63,29.82,29.41,28,10,29,0.00
2014-3-15,40.2,29.7,21.2,21.5,17.8,8.9,82,62,44,30.30,29.81,18,5,18,0.00
2014-3-16,28.9,18.7,7.7,14.4,5.3,-2.0,72,56,38,30.42,30.08,22,5,22,0.00
2014-3-17,36.9,23.8,15.6,17.9,12.7,8.4,75,63,45,30.09,29.62,25,8,25,0.00
2014-3-18,49.1,37.7,23.1,32.6,26.7,14.2,87,65,49,29.70,29.60,20,6,20,0.00
2014-3-19,39.1,33.4,31.0,29.4,24.7,18.9,79,70,59,29.87,29.54,25,6,25,0.00
2014-3-20,44.9,33.6,23.9,27.8,22.7,16.3,90,65,48,29.95,29.86,15,4,15,0.00
2014-3-21,49.9,35.0,20.7,36.3,26.4,15.5,94,72,49,29.91,29.67,30,7,30,0.00
2014-3-22,34.7,26.5,14.6,26.2,13.1,2.6,71,57,41,30.39,29.89,30,10,30,0.00
2014-3-23,26.4,16.9,9.2,10.1,4.7,-0.8,79,59,41,30.44,30.30,22,6,22,0.00
2014-3-24,36.7,23.4,10.8,20.5,13.0,5.6,83,66,44,30.33,29.98,25,5,25,0.00
2014-3-25,24.4,17.3,10.4,13.2,5.9,1.4,79,61,44,30.17,29.98,26,8,26,0.00
2014-3-26,38.0,25.2,7.9,22.9,12.8,-0.2,84,60,43,30.18,29.75,23,6,23,0.00
2014-3-27,39.2,36.9,34.1,36.3,32.8,22.9,100,86,56,29.75,29.35,22,6,22,0.00
2014-3-28,45.6,35.4,29.6,34.0,27.3,18.5,100,75,45,30.12,29.44,29,6,29,0.00
2014-3-29,48.6,37.0,29.4,29.6,24.0,19.2,81,60,44,30.23,30.11,10,2,10,0.00
2014-3-30,59.9,42.3,26.1,37.9,30.1,20.4,84,64,43,30.16,29.88,25,6,25,0.00
2014-3-31,65.3,51.0,39.0,49.5,41.4,35.4,88,71,52,29.91,29.46,33,9,33,0.00
2014-4-1,51.6,32.0,26.2,43.7,25.6,21.0,92,77,62,30.07,29.48,32,10,32,0.00
2014-4-2,51.9,35.2,20.9,29.0,24.7,18.8,100,69,39,30.17,30.04,20,4,20,0.00
2014-4-3,41.5,36.1,31.6,31.8,27.1,18.1,96,70,56,30.09,29.59,21,9,27,0.00
2014-4-4,35.2,32.7,29.4,35.1,32.6,29.0,100,100,97,29.98,29.46,32,7,32,0.00
2014-4-5,53.4,36.6,19.0,35.6,29.1,17.1,100,77,45,30.11,29.97,24,2,24,0.00
2014-4-6,63.0,46.9,29.4,45.1,36.0,25.1,93,67,49,30.04,29.82,22,5,22,0.00
2014-4-7,62.7,45.7,28.4,46.9,38.9,26.7,100,79,51,29.86,29.64,19,2,19,0.00
2014-4-8,58.4,43.2,23.0,41.2,33.4,18.3,100,72,40,29.94,29.68,26,6,26,0.00
2014-4-9,64.3,46.2,24.8,39.6,31.6,18.0,93,61,37,29.95,29.57,26,5,26,0.00
2014-4-10,63.6,53.3,30.6,39.1,31.6,14.6,65,46,26,29.92,29.51,28,8,28,0.00
2014-4-11,66.1,48.1,31.1,42.9,33.5,21.8,86,59,38,29.99,29.87,27,4,27,0.00
2014-4-12,45.7,42.5,26.2,42.0,37.6,21.2,98,83,66,29.97,29.62,27,5,27,0.00
2014-4-13,45.5,42.3,33.6,45.0,41.6,32.3,100,98,94,29.77,29.57,27,4,27,0.00
2014-4-14,37.5,31.1,21.6,37.5,30.1,19.4,100,96,85,30.00,29.59,23,8,23,0.00
2014-4-15,41.7,27.3,12.7,25.1,17.6,10.9,100,70,43,30.12,30.00,16,3,16,0.00
2014-4-16,51.3,39.2,25.1,34.8,25.8,14.6,69,59,47,30.13,29.91,28,10,28,0.00
2014-4-17,53.7,43.4,36.7,40.8,33.1,28.5,80,67,56,30.27,29.87,20,7,20,0.00
2014-4-18,57.4,41.6,26.0,33.9,28.0,19.1,89,60,37,30.34,30.24,13,2,13,0.00
2014-4-19,67.8,49.7,30.7,45.2,33.5,23.0,81,55,41,30.32,30.05,25,8,25,0.00
2014-4-20,61.5,56.5,51.3,53.0,45.0,37.4,83,66,47,30.07,29.91,16,2,16,0.00
2014-4-21,71.0,59.3,47.7,61.6,49.5,36.2,88,71,38,29.93,29.73,31,5,31,0.00
2014-4-22,57.2,45.8,35.0,36.6,31.7,27.9,80,59,38,30.08,29.89,24,8,24,0.00
2014-4-23,60.2,43.5,27.1,42.5,33.8,27.1,100,73,36,30.13,29.94,18,4,18,0.00
2014-4-24,48.0,42.0,36.0,48.0,41.5,35.6,100,98,91,30.04,29.61,23,6,23,0.00
2014-4-25,64.5,50.8,37.4,48.6,42.3,30.5,100,76,45,29.85,29.65,31,7,31,0.00
2014-4-26,58.7,45.0,31.7,40.7,34.8,29.4,92,69,45,30.04,29.84,22,5,22,0.00
2014-4-27,48.4,40.9,37.8,43.4,37.9,33.9,100,89,70,30.03,29.74,40,10,40,0.00
2014-4-28,44.2,42.2,40.6,43.8,40.8,37.6,100,95,86,29.80,29.59,38,12,38,0.00
2014-4-29,43.7,40.8,37.9,43.6,40.8,37.8,100,100,98,29.60,29.48,24,4,24,0.00
2014-4-30,50.7,44.2,41.0,49.0,44.1,40.9,100,100,92,29.65,29.56,12,2,12,0.00
2014-5-1,52.7,45.3,40.0,47.3,43.3,40.0,100,93,75,29.75,29.55,19,5,19,0.00
2014-5-2,55.4,47.2,42.1,47.8,43.9,41.1,100,89,67,29.75,29.58,16,4,16,0.00
2014-5-3,61.6,50.0,38.2,44.9,40.9,26.6,100,74,46,29.84,29.59,30,8,30,0.00
2014-5-4,64.3,50.0,37.1,36.9,33.1,25.2,85,55,30,30.04,29.83,15,4,15,0.00
2014-5-5,63.5,51.7,43.2,44.7,38.6,34.0,80,62,43,30.02,29.89,24,6,24,0.00
2014-5-6,65.9,51.8,36.3,46.3,39.7,30.5,90,65,45,30.00,29.82,28,7,28,0.00
2014-5-7,60.7,52.3,46.7,54.9,46.5,36.8,100,81,64,29.86,29.71,26,7,26,0.00
2014-5-8,79.8,62.1,47.4,68.0,57.2,46.6,99,85,64,29.76,29.57,23,5,23,0.00
2014-5-9,69.8,55.8,34.3,63.9,51.1,32.1,100,84,70,29.78,29.50,26,7,26,0.00
2014-5-10,73.7,54.9,36.5,53.5,44.6,27.4,100,73,37,29.88,29.77,15,2,15,0.00
2014-5-11,79.5,63.8,50.7,69.9,57.8,46.1,100,83,56,29.87,29.78,17,3,17,0.00
2014-5-12,78.0,66.6,60.3,70.0,64.8,60.3,100,95,75,29.83,29.66,23,4,23,0.00
2014-5-13,66.5,53.3,40.4,64.0,47.9,31.3,100,82,64,30.11,29.70,20,8,20,0.00
2014-5-14,63.1,49.7,32.0,40.5,35.5,24.1,96,61,38,30.18,30.01,18,4,18,0.00
2014-5-15,56.5,49.0,40.8,37.5,33.6,26.2,73,56,43,30.04,29.94,27,5,27,0.00
2014-5-16,55.7,43.4,28.4,35.0,31.5,25.5,100,65,42,30.04,29.97,15,3,15,0.00
2014-5-17,65.5,50.1,30.6,41.8,35.6,29.6,97,61,36,30.03,29.96,20,4,20,0.00
2014-5-18,74.8,57.9,44.0,47.0,39.9,23.6,72,53,33,30.09,30.00,19,4,19,0.00
2014-5-19,63.4,53.1,47.4,52.1,47.1,38.1,96,81,58,30.10,29.81,24,5,24,0.00
2014-5-20,83.4,67.0,50.4,66.8,55.0,37.8,93,68,40,29.82,29.72,14,2,14,0.00
2014-5-21,76.2,62.4,38.7,58.3,51.4,33.4,100,71,44,30.00,29.77,24,5,24,0.00
2014-5-22,73.4,59.4,40.1,52.5,46.5,25.9,88,65,43,30.13,29.99,14,4,22,0.00
2014-5-23,79.5,59.2,40.9,53.8,46.5,29.7,100,67,36,30.20,30.10,14,2,14,0.00
2014-5-24,81.1,63.0,45.3,54.2,47.5,38.7,90,60,36,30.19,30.03,14,2,14,0.00
2014-5-25,85.3,66.0,37.0,59.1,49.6,25.4,97,59,37,30.08,29.90,17,2,17,0.00
2014-5-26,86.5,72.7,60.8,69.9,61.9,50.9,98,70,51,29.94,29.82,16,2,16,0.00
2014-5-27,87.4,71.9,63.7,71.9,63.6,56.4,100,77,50,29.90,29.81,27,2,27,0.00
2014-5-28,80.3,66.9,46.0,63.5,51.5,37.1,100,60,37,30.06,29.90,11,3,18,0.00
2014-5-29,87.4,66.7,39.8,62.8,53.3,37.7,95,65,36,30.12,30.00,10,1,15,0.00
2014-5-30,88.2,68.9,45.1,62.5,55.8,39.9,98,67,39,30.16,30.05,11,3,14,0.00
2014-5-31,88.6,71.1,48.0,64.7,57.1,47.7,100,64,39,30.12,29.93,17,3,28,0.00
2014-6-1,85.6,69.8,64.8,68.6,61.8,57.3,92,76,55,29.99,29.74,20,5,27,0.00
2014-6-2,81.7,71.8,65.3,66.8,62.0,54.6,89,72,56,29.75,29.64,22,5,22,0.00
2014-6-3,78.0,66.4,53.1,58.1,52.6,34.8,75,62,46,29.92,29.71,26,6,26,0.00
2014-6-4,81.2,68.2,58.3,62.6,56.5,46.5,91,67,50,29.89,29.77,14,2,14,0.00
2014-6-5,82.4,67.8,52.8,61.1,54.8,44.2,100,66,41,29.94,29.84,15,2,15,0.00
2014-6-6,84.3,70.2,57.9,64.9,57.7,49.9,94,66,49,29.94,29.86,13,1,13,0.00
2014-6-7,84.2,64.9,56.2,67.5,58.9,52.6,100,83,52,29.96,29.84,27,2,27,0.00
2014-6-8,79.9,64.4,43.7,55.9,52.1,39.7,95,68,40,30.04,29.93,16,3,16,0.00
2014-6-9,79.3,64.0,40.0,57.6,49.4,31.2,95,62,38,30.03,29.89,14,2,14,0.00
2014-6-10,80.6,66.0,53.2,59.7,54.0,48.6,100,67,47,29.94,29.81,13,2,13,0.00
2014-6-11,82.3,67.2,56.2,61.0,55.0,46.2,100,67,44,29.82,29.69,13,2,13,0.00
2014-6-12,73.2,64.2,55.3,61.3,54.2,46.4,100,72,51,29.86,29.64,23,7,23,0.00
2014-6-13,75.2,60.8,48.1,51.1,45.3,37.8,87,59,39,29.98,29.85,23,5,23,0.00
2014-6-14,79.8,65.4,49.6,57.8,53.0,47.3,94,67,42,30.00,29.78,24,4,24,0.00
2014-6-15,83.9,71.1,58.6,68.0,58.3,50.3,95,65,47,29.86,29.57,44,7,44,0.00
2014-6-16,88.0,71.5,53.4,66.6,60.7,52.9,100,72,45,29.95,29.67,28,4,28,0.00
2014-6-17,87.5,73.3,62.2,71.1,65.2,55.2,96,77,54,29.84,29.65,17,2,17,0.00
2014-6-18,83.3,70.9,62.3,72.4,66.2,61.4,98,86,63,29.98,29.74,24,4,24,0.00
2014-6-19,78.7,70.6,62.8,69.5,65.6,61.7,99,85,69,30.07,29.92,25,5,25,0.00
2014-6-20,88.5,73.1,52.6,71.3,66.3,47.5,96,81,53,29.94,29.85,13,1,13,0.00
2014-6-21,85.0,73.4,62.3,74.4,67.4,59.9,95,82,61,29.89,29.79,13,3,13,0.00
2014-6-22,84.3,69.7,57.9,70.6,64.5,50.2,97,85,59,29.88,29.77,13,2,13,0.00
2014-6-23,84.5,73.9,63.3,71.1,66.6,61.8,96,79,60,29.81,29.74,14,2,14,0.00
2014-6-24,86.3,73.9,62.6,67.5,64.2,60.8,95,74,49,29.88,29.79,15,3,15,0.00
2014-6-25,82.8,70.7,62.0,68.4,63.8,59.9,94,80,61,29.99,29.87,16,2,16,0.00
2014-6-26,85.8,71.2,59.3,71.3,63.5,57.9,96,78,57,30.04,29.90,15,3,15,0.00
2014-6-27,86.8,75.1,63.3,75.6,67.2,58.3,88,77,62,29.95,29.81,22,5,22,0.00
2014-6-28,88.5,77.5,68.3,74.7,69.4,64.4,93,77,59,29.89,29.74,26,7,26,0.00
2014-6-29,87.2,74.1,64.7,71.6,66.0,60.1,99,77,50,29.81,29.70,26,4,26,0.00
2014-6-30,85.2,70.8,63.4,70.7,63.9,58.1,95,79,58,29.75,29.46,28,4,28,0.00
2014-7-1,80.0,68.0,59.7,64.8,59.3,53.2,87,74,57,29.70,29.53,28,5,28,0.00
2014-7-2,75.0,61.5,44.0,57.9,52.9,38.2,91,74,54,30.01,29.70,19,4,19,0.00
2014-7-3,78.7,62.3,36.0,56.6,50.4,30.6,90,68,44,30.16,29.99,15,2,15,0.00
2014-7-4,83.5,66.5,43.9,60.8,54.6,35.4,94,69,40,30.27,30.15,13,1,13,0.00
2014-7-5,80.4,68.7,53.3,65.7,59.7,49.2,95,74,57,30.17,29.92,26,4,26,0.00
2014-7-6,83.8,72.3,64.7,75.3,67.9,60.2,97,86,70,29.93,29.58,22,3,22,0.00
2014-7-7,85.3,71.3,60.3,68.0,63.6,58.6,98,79,52,29.73,29.53,26,3,26,0.00
2014-7-8,76.9,67.1,57.5,66.7,60.1,54.6,97,80,55,29.81,29.53,26,6,26,0.00
2014-7-9,78.3,64.8,54.5,58.1,54.7,51.2,95,72,48,30.02,29.79,21,3,21,0.00
2014-7-10,84.3,68.2,50.4,68.7,59.9,48.6,95,77,56,30.09,30.00,17,2,17,0.00
2014-7-11,80.2,69.9,59.8,66.3,62.1,59.3,100,77,62,30.11,29.98,23,3,23,0.00
2014-7-12,81.0,70.4,61.5,71.9,66.1,61.1,100,87,71,30.00,29.80,18,1,18,0.00
2014-7-13,77.8,66.5,55.2,72.3,59.4,51.4,100,81,44,29.88,29.83,19,3,19,0.00
2014-7-14,71.9,60.9,40.9,57.8,52.5,39.3,96,76,53,29.86,29.78,26,5,26,0.00
2014-7-15,70.8,59.0,44.4,58.4,52.5,41.0,94,80,59,29.95,29.85,24,5,24,0.00
2014-7-16,76.5,60.0,42.8,55.5,50.4,37.0,95,74,44,30.01,29.94,11,1,11,0.00
2014-7-17,79.2,63.4,44.7,60.6,53.5,38.3,99,74,44,30.05,29.98,11,1,11,0.00
2014-7-18,82.3,67.5,52.4,65.1,58.9,50.8,99,76,52,30.09,29.98,15,2,15,0.00
2014-7-19,83.8,69.6,57.3,67.0,61.0,55.1,94,76,53,30.01,29.92,17,2,17,0.00
2014-7-20,85.3,72.0,58.9,69.9,64.1,57.4,95,78,58,29.96,29.88,18,3,18,0.00
2014-7-21,89.1,76.2,64.8,74.2,67.4,61.8,91,75,56,29.96,29.89,19,4,19,0.00
2014-7-22,92.2,79.6,67.6,77.9,69.8,60.8,84,73,56,30.04,29.82,23,6,23,0.00
2014-7-23,80.9,68.3,55.5,61.6,58.6,53.5,95,73,47,30.18,30.04,14,1,14,0.00
2014-7-24,82.7,66.9,52.7,62.4,57.4,50.7,94,74,47,30.14,29.91,7,1,11,0.00
2014-7-25,76.8,66.4,58.9,66.5,60.6,56.3,93,82,70,29.98,29.79,24,3,24,0.00
2014-7-26,83.3,72.1,63.6,72.3,66.7,61.3,97,84,65,29.82,29.73,12,2,12,0.00
2014-7-27,76.2,67.9,57.4,68.8,61.9,54.2,97,82,64,30.00,29.68,34,5,34,0.00
2014-7-28,75.9,62.5,40.0,57.7,53.0,32.6,93,73,50,30.11,29.99,21,3,21,0.00
2014-7-29,80.2,63.2,52.6,64.2,56.8,49.8,100,82,52,30.03,29.93,37,3,37,0.00
2014-7-30,76.8,64.0,52.9,65.8,58.7,52.8,100,85,55,30.04,29.95,15,2,15,0.00
2014-7-31,81.0,68.4,55.2,65.6,60.4,53.5,97,78,53,29.97,29.93,16,3,16,0.00
2014-8-1,84.3,69.9,57.1,67.0,61.5,56.3,98,77,52,30.04,29.95,17,2,17,0.00
2014-8-5,81.5,73.1,60.8,65.1,62.5,57.5,91,71,55,30.07,30.00,8,1,8,0.00
2014-8-6,84.6,68.9,54.4,65.9,59.8,51.2,95,76,48,30.07,29.99,8,0,8,0.00
2014-8-7,85.6,69.1,54.7,64.1,58.2,51.5,95,71,46,30.08,29.99,19,2,19,0.00
2014-8-8,87.5,68.3,40.0,64.1,57.7,35.7,93,72,44,30.09,30.01,14,1,14,0.00
2014-8-9,84.8,68.8,51.5,64.2,58.1,46.0,97,72,42,30.11,30.02,15,2,15,0.00
2014-8-10,85.9,67.7,46.0,67.4,58.4,33.4,92,74,49,30.08,29.94,12,1,12,0.00
2014-8-11,83.5,66.6,59.6,68.8,61.7,56.1,98,85,59,29.95,29.78,22,3,22,0.00
2014-8-12,75.8,63.0,52.5,57.0,53.0,49.1,89,72,47,29.95,29.87,28,6,28,0.00
2014-8-13,80.6,66.6,53.2,62.9,56.2,49.1,93,71,47,30.05,29.93,18,3,18,0.00
2014-8-14,76.9,59.8,40.4,55.3,49.6,35.9,93,72,42,30.13,29.99,10,1,10,0.00
2014-8-15,83.2,65.0,45.7,67.7,56.4,37.7,93,76,54,30.02,29.86,15,1,15,0.00
2014-8-16,87.3,73.3,60.0,69.9,65.4,59.6,100,79,54,29.89,29.80,12,2,12,0.00
2014-8-17,82.5,69.6,61.2,66.1,62.5,58.2,99,80,57,30.00,29.88,15,3,15,0.00
2014-8-18,86.9,70.9,60.8,72.8,64.4,58.1,98,81,62,29.91,29.63,25,3,25,0.00
2014-8-19,78.7,68.5,60.1,70.7,63.9,58.6,100,87,63,29.74,29.60,19,3,19,0.00
2014-8-20,85.3,69.9,57.7,70.3,64.2,56.6,100,84,59,29.90,29.73,13,1,13,0.00
2014-8-21,81.5,70.3,63.3,74.3,68.1,62.8,100,93,78,29.90,29.81,19,2,19,0.00
2014-8-22,90.0,76.5,66.6,77.8,72.5,66.6,100,89,64,29.94,29.81,11,1,11,0.00
2014-8-23,81.6,74.4,70.0,77.2,72.6,69.4,99,94,85,29.96,29.87,12,1,12,0.00
2014-8-24,89.0,77.2,68.8,77.8,72.3,67.0,99,86,69,29.95,29.86,18,4,18,0.00
2014-8-25,88.0,76.1,67.1,77.7,71.8,65.9,100,88,69,29.98,29.85,27,2,27,0.00
2014-8-26,76.1,67.4,61.5,71.6,59.0,53.6,99,75,57,30.14,29.96,18,3,18,0.00
2014-8-27,79.2,66.8,57.7,63.6,58.9,55.0,97,77,56,30.16,30.05,6,0,8,0.00
2014-8-28,78.4,65.1,53.6,65.7,59.9,52.2,98,85,63,30.11,29.94,15,2,15,0.00
2014-8-29,87.0,71.8,59.3,75.6,66.5,57.3,100,84,66,29.95,29.72,15,2,15,0.00
2014-8-30,81.5,70.0,64.5,74.4,67.3,62.8,100,92,68,29.86,29.68,18,2,18,0.00
2014-8-31,84.8,71.8,59.8,71.9,66.2,58.9,98,84,63,29.89,29.68,18,3,18,0.00
2014-9-1,79.5,68.4,57.7,71.1,63.7,56.5,100,85,67,29.81,29.59,29,3,29,0.00
2014-9-2,78.5,66.7,53.6,63.8,59.0,52.8,99,79,54,29.90,29.80,15,2,15,0.00
2014-9-3,82.5,68.7,54.1,68.2,62.0,53.5,99,81,58,29.94,29.73,17,3,17,0.00
2014-9-4,82.4,74.5,68.5,73.8,69.5,66.0,95,85,72,29.82,29.73,24,5,28,0.00
2014-9-5,76.8,65.7,52.0,73.7,59.9,50.9,99,82,67,30.11,29.74,19,5,20,0.00
2014-9-6,74.9,59.1,44.7,58.5,52.4,44.4,100,81,50,30.16,30.09,19,2,19,0.00
2014-9-7,79.8,61.9,47.6,60.6,54.5,47.1,100,80,49,30.16,30.05,11,1,11,0.00
2014-9-8,75.9,61.4,48.0,61.8,55.4,46.1,99,82,56,30.07,29.88,17,2,18,0.00
2014-9-9,82.0,68.3,57.4,67.1,61.9,55.4,96,81,57,29.91,29.72,15,2,15,0.00
2014-9-10,73.1,59.8,28.2,68.5,56.5,22.8,97,89,78,29.97,29.43,26,6,31,0.00
2014-9-11,58.0,48.7,40.6,45.1,40.8,37.5,93,75,59,30.30,29.96,13,4,21,0.00
2014-9-12,49.3,44.2,38.4,43.6,40.8,36.6,96,88,78,30.39,30.28,9,1,9,0.00
2014-9-13,62.7,46.9,38.4,43.1,39.2,36.1,95,77,47,30.33,30.22,10,2,11,0.00
2014-9-14,68.5,53.9,37.9,50.3,44.4,35.6,95,72,50,30.24,30.03,18,3,22,0.00
2014-9-15,61.1,52.1,40.2,47.8,44.2,34.8,93,75,59,30.17,30.07,14,1,14,0.00
2014-9-16,65.8,48.7,28.4,50.7,39.9,19.5,97,74,47,30.18,30.00,11,1,11,0.00
2014-9-17,72.7,54.1,35.0,55.0,46.8,32.3,99,79,51,30.01,29.91,11,1,14,0.00
2014-9-18,65.5,53.4,46.0,55.2,50.3,45.9,100,90,68,30.15,29.98,12,2,13,0.00
2014-9-19,74.0,59.5,45.7,61.0,51.3,44.6,98,77,52,30.08,29.71,27,6,27,0.00
2014-9-20,77.1,66.0,56.6,62.3,57.1,50.6,94,74,55,29.77,29.63,32,4,32,0.00
2014-9-21,65.3,55.4,40.7,53.9,45.3,27.3,93,70,49,30.17,29.68,26,7,26,0.00
2014-9-22,70.1,52.0,36.6,52.4,42.6,25.9,96,72,51,30.23,30.13,17,2,18,0.00
2014-9-23,73.2,55.8,33.2,55.9,47.0,26.1,99,74,49,30.27,30.17,15,1,15,0.00
2014-9-24,70.0,57.8,47.8,54.5,48.7,41.3,85,72,55,30.27,30.18,15,2,16,0.00
2014-9-25,74.6,60.9,50.3,56.2,50.0,37.5,79,69,44,30.24,30.14,9,1,11,0.00
2014-9-26,77.8,59.2,43.9,58.7,49.0,37.8,93,70,48,30.22,30.13,11,1,12,0.00
2014-9-27,79.9,63.8,51.3,61.3,53.9,46.0,96,72,49,30.21,30.08,11,1,11,0.00
2014-9-28,80.7,63.6,50.5,63.1,53.9,44.2,83,72,50,30.15,30.00,10,0,10,0.00
2014-9-29,68.2,55.1,43.9,59.4,48.4,38.1,82,78,67,30.06,29.95,20,2,21,0.00
2014-9-30,54.7,46.1,38.4,40.8,37.0,27.3,81,71,59,30.09,29.97,13,3,15,0.00
2014-10-1,67.8,55.7,40.3,53.7,46.6,33.4,80,72,60,29.99,29.78,17,3,17,0.00
2014-10-2,72.0,62.1,52.5,60.5,54.6,47.8,86,77,63,29.82,29.54,21,1,22,0.00
2014-10-3,54.6,47.5,34.2,51.7,39.4,24.8,100,74,58,29.72,29.54,26,9,30,0.00
2014-10-4,49.9,40.0,26.1,38.8,31.3,17.3,87,71,57,29.66,29.57,22,7,24,0.00
2014-10-5,50.5,40.7,29.3,35.6,29.7,21.4,93,66,49,29.64,29.52,18,3,20,0.00
2014-10-6,54.2,43.6,30.8,39.1,32.6,28.4,96,68,43,29.53,29.45,21,4,21,0.00
2014-10-7,62.2,50.3,32.6,45.2,36.9,14.1,75,61,50,29.79,29.45,22,5,22,0.00
2014-10-8,58.9,45.2,22.5,38.6,33.8,21.5,98,67,44,30.01,29.79,22,5,26,0.00
2014-10-9,54.0,40.4,29.1,37.8,31.7,27.1,94,73,49,30.15,30.00,12,2,14,0.00
2014-10-10,54.6,40.0,27.5,39.7,32.6,25.0,99,77,47,30.21,30.11,12,1,12,0.00
2014-10-11,56.2,39.5,27.2,41.7,33.2,26.1,100,80,53,30.23,30.05,6,0,9,0.00
2014-10-12,59.7,45.6,30.9,47.6,39.4,30.8,100,81,53,30.06,29.80,19,4,19,0.00
2014-10-13,58.3,52.4,48.7,53.8,51.1,47.1,100,95,82,29.81,29.51,22,3,22,0.00
2014-10-14,51.2,49.0,47.7,51.2,49.0,46.7,100,100,91,29.76,29.47,30,6,30,0.00
2014-10-15,57.3,50.8,44.9,49.8,46.2,41.3,97,84,75,29.86,29.75,19,4,19,0.00
2014-10-16,62.2,49.3,36.8,52.2,46.1,36.8,100,90,68,29.83,29.49,12,2,12,0.00
2014-10-17,53.0,49.0,43.5,49.8,46.7,41.6,100,92,83,29.91,29.48,26,7,26,0.00
2014-10-18,50.9,42.9,31.1,43.4,38.0,24.8,100,84,57,30.15,29.90,21,4,21,0.00
2014-10-19,58.0,43.5,28.0,47.7,38.9,26.8,100,85,67,30.12,29.72,24,4,24,0.00
2014-10-20,59.4,50.3,42.4,46.9,43.4,39.8,98,78,60,30.02,29.72,22,5,22,0.00
2014-10-21,51.9,42.6,31.1,41.4,37.7,23.8,100,84,64,30.25,30.01,15,1,15,0.00
2014-10-22,55.6,39.2,24.3,44.5,34.9,23.3,100,86,59,30.30,30.12,17,3,17,0.00
2014-10-23,48.3,45.3,37.4,46.7,42.6,34.8,99,90,75,30.13,29.97,14,2,14,0.00
2014-10-24,61.7,52.7,46.3,54.1,49.4,45.8,99,89,70,30.01,29.82,17,2,17,0.00
2014-10-25,62.5,52.9,41.7,52.3,39.5,29.3,92,63,39,29.96,29.81,27,8,27,0.00
2014-10-26,60.4,46.8,27.5,38.9,33.1,19.2,92,61,41,29.99,29.70,13,2,13,0.00
2014-10-27,70.5,57.4,38.9,60.1,47.3,33.7,96,69,54,29.70,29.44,13,2,13,0.00
2014-10-28,56.6,45.2,33.1,49.6,40.8,29.3,100,85,70,29.87,29.55,29,10,29,0.00
2014-10-29,46.4,39.8,30.1,36.8,33.9,28.7,99,80,67,30.09,29.87,27,6,27,0.00
2014-10-30,49.5,40.0,28.4,39.5,34.6,28.4,100,82,66,30.08,30.00,27,3,27,0.00
2014-10-31,39.6,32.5,22.6,31.6,21.9,16.6,92,65,50,30.44,30.07,36,9,36,0.00
2014-11-1,41.8,28.1,16.6,29.0,23.0,16.5,100,83,57,30.45,30.27,11,1,11,0.00
2014-11-2,53.4,40.2,26.1,32.0,27.2,14.9,92,62,38,30.28,29.98,24,6,24,0.00
2014-11-3,54.1,46.9,38.6,51.8,37.3,27.1,95,69,59,29.99,29.71,18,3,18,0.00
2014-11-4,54.9,46.2,36.4,54.8,39.8,29.4,100,79,61,29.96,29.68,25,9,25,0.00
2014-11-5,48.8,39.8,28.4,40.4,35.4,27.3,100,85,65,30.04,29.78,16,2,16,0.00
2014-11-6,39.3,35.7,33.5,39.3,33.0,26.9,100,90,73,30.20,29.78,24,6,24,0.00
2014-11-7,42.6,36.9,29.7,34.9,30.0,25.8,89,76,63,30.17,29.63,20,4,20,0.00
2014-11-8,41.3,37.8,32.5,37.7,28.8,23.8,88,70,55,29.89,29.62,31,8,31,0.00
2014-11-9,46.2,38.4,33.4,34.3,30.4,22.4,93,73,58,29.83,29.67,17,3,17,0.00
2014-11-10,42.2,36.2,32.8,36.4,31.9,27.0,95,85,71,29.81,29.46,23,5,23,0.00
2014-11-11,32.7,28.8,18.0,32.0,27.9,16.6,100,97,88,30.13,29.62,28,8,28,0.00
2014-11-12,27.0,21.0,15.5,21.7,17.8,13.9,96,87,78,30.24,30.12,19,7,19,0.00
2014-11-13,27.3,22.7,16.5,20.2,18.3,14.7,94,83,71,30.27,30.21,18,7,21,0.00
2014-11-14,25.8,19.8,9.9,17.6,14.3,8.0,94,79,63,30.32,30.25,12,4,15,0.00
2014-11-15,26.3,18.3,7.7,19.2,14.2,6.2,95,85,57,30.29,30.10,9,1,9,0.00
2014-11-16,28.3,19.3,8.0,21.9,14.3,2.8,94,81,69,30.12,29.80,16,4,16,0.00
2014-11-17,15.0,11.2,7.5,8.5,4.8,1.5,89,75,62,29.86,29.75,26,9,26,0.00
2014-11-18,16.7,13.0,7.8,8.8,5.3,2.1,79,71,62,29.97,29.84,25,8,25,0.00
2014-11-19,25.0,19.2,15.6,18.6,13.3,8.5,86,77,67,29.86,29.66,29,8,29,0.00
2014-11-20,19.2,12.6,-1.2,12.8,4.4,-7.2,85,70,51,30.26,29.85,24,7,24,0.00
2014-11-21,31.3,17.0,-0.2,23.6,7.8,-3.6,88,69,49,30.30,29.96,21,4,21,0.00
2014-11-22,47.2,36.2,31.1,47.1,35.2,23.4,100,96,73,29.96,29.61,16,3,16,0.00
2014-11-23,49.6,47.1,42.9,49.5,47.1,42.9,100,100,100,29.62,29.09,18,3,18,0.00
2014-11-24,43.0,30.5,21.4,43.0,30.3,20.3,100,99,95,29.75,29.06,29,10,29,0.00
2014-11-25,25.6,18.5,9.3,23.1,17.1,7.8,98,94,88,30.09,29.74,17,4,17,0.00
2014-11-26,29.4,19.3,11.1,25.2,17.4,9.9,97,92,82,30.21,30.05,9,1,9,0.00
2014-11-27,22.7,12.1,1.7,20.7,7.9,-1.6,92,83,72,30.38,30.21,19,4,19,0.00
2014-11-28,26.7,19.8,9.5,20.3,14.8,6.3,92,81,68,30.29,29.73,19,4,19,0.00
2014-11-29,40.9,30.7,20.4,39.4,28.4,15.5,100,91,81,29.73,29.39,13,2,13,0.00
2014-11-30,32.9,22.9,9.8,32.7,15.2,1.0,100,73,53,30.38,29.50,25,8,25,0.00
2014-12-1,11.2,5.5,0.2,0.4,-3.8,-6.9,81,65,51,30.69,30.38,14,4,20,0.00
2014-12-2,28.0,19.6,0.0,20.8,13.8,-4.4,91,78,64,30.50,29.91,15,4,16,0.00
2014-12-3,26.6,19.7,10.8,18.9,11.9,5.5,88,72,55,30.32,29.91,23,6,23,0.00
2014-12-4,28.8,20.5,10.1,17.2,11.7,4.7,83,69,49,30.36,30.16,16,3,16,0.00
2014-12-5,37.2,31.2,24.1,32.2,26.7,17.3,95,83,74,30.31,30.11,12,2,12,0.00
2014-12-6,32.2,23.3,14.1,26.8,19.3,11.7,98,85,63,30.62,30.30,15,2,15,0.00
2014-12-7,34.6,25.7,14.3,27.7,20.0,12.3,94,80,59,30.61,30.11,20,5,20,0.00
2014-12-8,34.2,31.8,28.9,32.4,29.6,24.7,95,91,84,30.16,29.89,26,4,26,0.00
2014-12-9,33.9,27.3,18.1,26.4,22.9,14.9,90,83,71,30.39,30.15,17,4,17,0.00
2014-12-10,25.7,23.5,20.4,20.6,19.1,17.0,87,83,79,30.40,30.24,7,1,7,0.00
2014-12-11,29.6,24.7,21.3,23.3,20.2,17.4,91,83,76,30.26,30.18,14,4,14,0.00
2014-12-12,35.1,31.5,25.2,31.3,28.9,22.7,94,90,85,30.24,30.14,12,3,13,0.00
2014-12-13,43.4,38.9,33.4,40.0,36.7,31.1,99,92,85,30.14,29.96,9,2,14,0.00
2014-12-14,48.0,43.9,40.9,46.9,42.9,38.8,100,96,91,29.98,29.85,10,2,10,0.00
2014-12-15,45.2,43.8,42.2,45.1,43.8,42.1,100,100,100,29.86,29.61,16,3,16,0.00
2014-12-16,42.1,31.6,23.4,42.1,30.8,20.8,100,97,84,30.14,29.61,25,8,28,0.00
2014-12-17,23.6,20.9,16.8,21.7,17.3,13.3,94,86,81,30.27,30.13,13,6,20,0.00
2014-12-18,26.0,23.7,20.2,21.2,18.8,15.4,86,81,78,30.27,30.19,8,2,8,0.00
2014-12-19,27.6,25.3,22.8,21.5,20.2,19.0,87,81,77,30.26,30.18,8,2,8,0.00
2014-12-20,30.7,28.3,25.3,27.2,24.9,20.6,91,87,82,30.21,30.11,10,3,10,0.00
2014-12-21,35.5,32.8,29.6,34.6,31.4,27.0,99,94,90,30.12,29.83,20,6,20,0.00
2014-12-22,38.2,34.5,33.0,33.5,31.5,30.1,94,89,75,29.84,29.55,18,5,18,0.00
2014-12-23,35.7,34.2,32.6,34.7,33.0,31.1,97,95,93,29.70,29.47,14,1,14,0.00
2014-12-24,34.6,33.2,31.3,33.4,32.0,29.8,98,95,90,29.66,29.48,13,4,13,0.00
2014-12-25,37.7,32.6,29.9,32.5,28.7,25.4,93,85,77,29.85,29.56,18,3,18,0.00
2014-12-26,43.1,33.8,25.3,37.0,31.5,24.8,100,92,75,29.97,29.81,8,1,8,0.00
2014-12-27,33.9,29.5,18.3,33.1,27.0,14.0,97,90,79,30.08,29.76,25,6,25,0.00
2014-12-28,28.4,19.9,13.6,18.8,13.0,7.2,87,75,65,30.28,30.06,15,3,15,0.00
2014-12-29,17.2,11.5,1.3,12.8,4.7,-4.5,86,74,59,30.58,30.26,15,5,15,0.00
2014-12-30,9.5,2.3,-2.4,-4.0,-6.9,-9.3,78,66,47,30.68,30.54,18,6,18,0.00
2014-12-31,19.4,7.1,-4.1,6.9,-0.8,-8.7,81,70,50,30.54,29.96,27,7,27,0.00
2015-1-1,27.5,19.7,10.5,19.8,12.8,4.4,85,74,64,30.08,29.80,19,6,19,0.00
2015-1-2,28.9,19.3,8.3,17.4,10.2,3.1,84,68,48,30.25,30.06,11,2,11,0.00